Regional Weather Roundup
Issued by NWS

Home | Current Version | Previous Version | Graphics & Text | Print | Product List | Glossary On
Versions: 1 2 3 4 5 6 7 8 9 10 11 12 13 14 15 16 17 18 19 20 21 22 23 24 25 26 27 28 29 30 31 32 33 34 35 36 37 38 39 40 41 42 43 44 45 46 47 48 49 50
000
ASUS43 KOAX 291702
RWRNE

WEATHER ROUNDUP FOR NEBRASKA
NATIONAL WEATHER SERVICE OMAHA NE
1200 PM CDT WED JUL 29 2015

NOTES: SATELLITE DATA IS BEING USED TO AUGMENT CLOUD COVER ABOVE
       12000 FEET.
       "FAIR" INDICATES FEW OR NO CLOUDS BELOW 12,000 FEET WITH NO
       SIGNIFICANT WEATHER AND/OR OBSTRUCTIONS TO VISIBILITY.

  * THESE STATIONS DO NOT REPORT WEATHER SUCH AS RAIN...SNOW OR FOG.

NEZ001>004-019>022-054>056-291800-
NEBRASKA PANHANDLE

CITY           SKY/WX    TMP DP  RH WIND       PRES   REMARKS
SCOTTSBLUFF    SUNNY     71  46  40 E13       30.31F
ALLIANCE       SUNNY     75  46  35 S10       30.31F
CHADRON        SUNNY     77  45  32 VRB5      30.28F
KIMBALL        SUNNY     74  47  38 S15       30.32S
SIDNEY         SUNNY     77  47  34 S14G20    30.32F
$$

NEZ057>060-069>072-079>082-291800-
SOUTHWEST NEBRASKA

CITY           SKY/WX    TMP DP  RH WIND       PRES   REMARKS
NORTH PLATTE   SUNNY     75  51  43 SE8       30.29F
IMPERIAL       PTSUNNY   75  49  39 SE12      30.30S
MCCOOK         PTSUNNY   73  51  46 E10       30.26S
$$

NEZ005>010-023>029-035>040-094-291800-
NORTH CENTRAL NEBRASKA

CITY           SKY/WX    TMP DP  RH WIND       PRES   REMARKS
VALENTINE      SUNNY     82  38  20 W15G23    30.25F
AINSWORTH      SUNNY     79  43  27 SW12      30.26S
BROKEN BOW     SUNNY     79  47  32 SW6       30.27F
O`NEILL        SUNNY     81  45  28 W12       30.24F
ORD            SUNNY     80  43  26 VRB5      30.24F
$$

NEZ041-046>049-061>064-073>077-083>087-291800-
SOUTH CENTRAL NEBRASKA

CITY           SKY/WX    TMP DP  RH WIND       PRES   REMARKS
GRAND ISLAND   MOSUNNY   80  45  28 VRB6      30.25F
AURORA         MOSUNNY   76  59  56 CALM      30.24F
HASTINGS       SUNNY     79  53  40 NE9       30.24F
HEBRON         FAIR      80  56  43 NE8       30.21S
HOLDREGE       SUNNY     78  50  37 E9        30.25S
KEARNEY *      SUNNY     79  48  34 NE7       30.26R
$$

NEZ011>018-030>034-042>045-291800-
NORTHEAST NEBRASKA

CITY           SKY/WX    TMP DP  RH WIND       PRES   REMARKS
NORFOLK        SUNNY     81  49  32 W8        30.21S
ALBION         SUNNY     80  45  28 W3        30.24S
BLAIR          MOSUNNY   78  53  41 NW6       30.20S
COLUMBUS *     MOSUNNY   81  54  39 W5        30.22F
FREMONT        MOSUNNY   82  54  38 W6        30.20S
TEKAMAH        MOSUNNY   80  61  52 SW8       30.18S
$$

NEZ050>053-065>068-078-088>093-291800-
SOUTHEAST NEBRASKA

CITY           SKY/WX    TMP DP  RH WIND       PRES   REMARKS
LINCOLN        SUNNY     84  49  29 VRB7      30.20F
OMAHA EPPLEY   MOSUNNY   84  54  35 NW10      30.17F
BEATRICE       MOSUNNY   81  57  43 N9        30.20S
FALLS CITY     MOSUNNY   82  67  60 N6        30.16R
NEBRASKA CITY  MOSUNNY   79  55  43 N9        30.18S
$$

NEZ044-045-051>053-067-291800-
OMAHA AREA

CITY           SKY/WX    TMP DP  RH WIND       PRES   REMARKS
OMAHA EPPLEY   MOSUNNY   84  54  35 NW10      30.17F
BLAIR          MOSUNNY   78  53  41 NW6       30.20S
FREMONT        MOSUNNY   82  54  38 W6        30.20S
OFFUTT AFB     MOSUNNY   83  50  31 N8        30.16F
WAHOO          FAIR      80  52  37 NW5       30.20F
$$



USA.gov is the U.S. government's official web portal to all federal, state and local government web resources and services.